Regional Weather Roundup
Issued by NWS State College, PA

Home | Current Version | Previous Version | Text Only | Print | Product List | Glossary Off
Versions: 1 2 3 4 5 6 7 8 9 10 11 12 13 14 15 16 17 18 19 20 21 22 23 24 25 26 27 28 29 30 31 32 33 34 35 36 37 38 39 40 41 42 43 44 45 46 47 48 49 50

259
ASUS41 KCTP 250610
RWRCTP

REGIONAL WEATHER ROUNDUP
NATIONAL WEATHER SERVICE STATE COLLEGE PA
200 AM EDT SAT MAR 25 2017

Note: "fair" indicates few or no clouds below 12,000 feet with no
significant weather and/or obstructions to visibility.

* = STATION THAT DOES NOT REPORT PRECIPITATION /E.G. RAIN...SNOW...ETC/
    THUNDER OR FOG.

PAZ002>004-007>009-013>016-020>023-029>032-250700-
WESTERN PENNSYLVANIA

CITY           SKY/WX    TMP DP  RH WIND       PRES   REMARKS
ERIE           CLOUDY    48  42  80 NE5       30.08F
MEADVILLE      PTCLDY    62  50  64 SW13      30.07F
FRANKLIN*      PTCLDY    61  48  63 SW9       30.10F
NEW CASTLE     FAIR      61  52  72 SW5       30.11S
BEAVER COUNTY  NOT AVBL
BUTLER*        CLOUDY    63  48  59 SW5       30.13S
PITTSBURGH INT CLOUDY    65  52  62 SW8       30.12R
PITTSBURGH     MOCLDY    64  49  57 SW8       30.12S
INDIANA*       CLOUDY    57  52  82 SW5       30.15S
LATROBE        CLOUDY    61  52  72 SW7       30.14S
WASHINGTON CO* CLOUDY    59  48  67 SW6       30.15S
$$

PAZ004>006-010>012-017>019-024>028-033>037-041-042-045-046-049>053-250700-
CENTRAL PENNSYLVANIA

CITY           SKY/WX    TMP DP  RH WIND       PRES   REMARKS
BRADFORD       MOCLDY    60  51  72 W10G20    30.07F
DUBOIS         CLOUDY    58  48  69 SW12      30.09F
CLEARFIELD       N/A    N/A N/A N/A MISG      30.11S
JOHNSTOWN      CLOUDY    60  50  69 SW9       30.15S
ALTOONA        CLOUDY    64  51  62 SW9       30.13F
STATE COLLEGE  CLOUDY    59  49  70 S3        30.10S
WILLIAMSPORT   CLOUDY    39  36  89 CALM      30.10R
SELINSGROVE    CLOUDY    41  38  89 CALM      30.11F
FT INDIANTOWN  MOCLDY    42  42  99 CALM      30.12F
CAPITAL CITY   MOCLDY    47  38  71 CALM      30.12F
HARRISBURG     MOCLDY    46  41  82 CALM      30.12F
YORK           CLOUDY    49  42  77 CALM      30.12F
$$

PAZ038>040-043-044-047-048-054-055-060>062-067>071-250700-
EASTERN PENNSYLVANIA

CITY           SKY/WX    TMP DP  RH WIND       PRES   REMARKS
SCRANTON       PTCLDY    46  39  76 S3        30.07R
MOUNT POCONO   CLOUDY    47  39  74 W10       30.07F
ALLENTOWN      MOCLDY    40  33  76 NW3       30.11F
QUAKERTOWN*    CLOUDY    39  32  75 CALM      30.12F
READING        MOCLDY    44  37  76 CALM      30.11F
LANCASTER      MOCLDY    46  37  71 CALM      30.12F
COATESVILLE    PTCLDY    52  39  62 VRB5      30.14F
POTTSTOWN      CLOUDY    44  34  67 CALM      30.13F
BLUE BELL      MOCLDY    41  34  75 CALM      30.11F
DOYLESTOWN     CLOUDY   N/A N/A N/A S5        30.11F
WILLOW GROVE   NOT AVBL
NORTH PHILA    MOCLDY    49  36  61 CALM      30.14F
PHILADELPHIA   MOCLDY    48  37  65 S7        30.14F
$$




USA.gov is the U.S. government's official web portal to all federal, state and local government web resources and services.